Date,TemperatureHighF,TemperatureAvgF,TemperatureLowF,DewpointHighF,DewpointAvgF,DewpointLowF,HumidityHigh,HumidityAvg,HumidityLow,PressureMaxIn,PressureMinIn,WindSpeedMaxMPH,WindSpeedAvgMPH,GustSpeedMaxMPH,PrecipitationSumIn
2013-1-20,55.9,43.3,29.0,30.4,17.9,11.3,50,37,22,29.93,29.58,7,4,17,0.00
2013-1-21,31.5,28.6,25.8,21.3,16.5,9.2,77,61,45,29.98,29.73,5,1,12,0.00
2013-1-22,27.2,20.4,12.3,18.4,1.0,-10.9,70,43,27,30.09,29.72,7,4,18,0.00
2013-1-23,22.2,14.8,10.0,-1.9,-4.9,-9.4,55,41,28,30.15,30.06,5,3,13,0.00
2013-1-24,24.7,16.2,7.6,5.5,-0.6,-4.9,70,49,28,30.28,30.04,6,2,19,0.00
2013-1-25,25.4,18.2,11.6,16.0,5.7,-1.0,87,60,33,30.31,29.97,4,1,14,0.00
2013-1-26,27.8,20.7,14.0,14.2,9.3,3.4,86,62,44,30.26,29.94,5,2,11,0.03
2013-1-27,35.5,24.1,12.9,15.2,9.8,6.1,78,56,31,30.41,30.26,4,1,10,0.00
2013-1-28,34.1,28.8,18.9,33.2,24.1,10.7,97,83,60,30.39,29.92,2,0,8,0.19
2013-1-29,41.2,37.7,34.0,37.9,35.7,33.2,97,93,82,30.07,29.90,2,0,7,0.05
2013-1-30,55.0,49.9,38.2,53.6,49.0,37.2,98,97,94,30.02,29.33,7,3,17,0.00
2013-1-31,57.2,44.2,28.4,56.1,29.7,9.3,97,60,33,29.67,28.97,13,5,21,0.11
2013-2-1,31.8,27.6,23.2,13.0,8.9,2.8,58,45,32,30.12,29.67,6,3,18,0.11
2013-2-2,32.4,25.2,17.8,20.8,9.5,2.4,87,53,30,30.21,29.98,5,2,14,0.00
2013-2-3,31.8,25.5,21.3,21.4,18.3,13.3,91,75,48,29.98,29.69,2,-4,6,0.04
2013-2-4,34.0,26.3,21.8,20.9,11.1,6.9,82,54,35,29.89,29.70,6,-14,17,0.04
2013-2-5,29.8,27.8,24.8,27.8,23.5,11.7,92,84,57,29.90,29.82,3,0,6,0.00
2013-2-6,41.5,32.7,27.5,30.5,22.0,8.4,95,67,44,30.26,29.83,5,1,12,0.03
2013-2-7,30.4,26.8,23.0,22.4,10.4,2.0,72,50,35,30.43,30.26,2,0,6,0.03
2013-2-8,33.4,31.1,25.6,32.1,28.4,22.1,97,90,71,30.26,29.49,7,2,20,0.16
2013-2-9,28.7,24.6,18.1,26.7,20.1,9.5,96,83,66,30.22,29.60,6,2,17,0.16
2013-2-10,33.5,23.0,11.9,22.5,14.0,4.5,90,69,48,30.38,30.22,3,1,8,0.26
2013-2-11,44.8,38.0,25.1,44.8,37.1,22.6,100,96,85,30.26,29.57,4,0,18,0.57
2013-2-12,46.7,38.2,28.5,39.5,29.3,23.5,100,72,47,29.87,29.61,5,2,13,0.58
2013-2-13,35.6,31.6,26.9,29.5,25.6,22.2,86,79,68,29.86,29.60,1,0,2,0.00
2013-2-14,46.0,37.1,29.4,34.7,28.6,21.1,96,74,38,29.91,29.60,3,0,8,0.01
2013-2-15,51.0,40.5,31.9,36.5,34.2,30.1,95,80,55,29.93,29.83,3,0,8,0.01
2013-2-16,38.5,34.0,27.5,35.3,26.5,17.0,94,75,52,29.86,29.61,4,1,8,0.01
2013-2-17,34.4,25.4,15.9,21.5,7.1,0.8,79,47,28,29.85,29.52,10,5,21,0.01
2013-2-18,34.7,24.3,16.1,13.0,6.8,2.0,57,48,32,30.14,29.84,9,4,19,0.00
2013-2-19,46.8,38.5,27.6,43.4,32.1,13.5,97,79,55,30.14,29.56,6,2,14,0.28
2013-2-20,36.5,30.6,23.8,29.5,15.5,8.5,77,54,36,29.86,29.59,8,4,19,0.28
2013-2-21,35.2,27.8,22.2,15.6,12.9,10.1,67,54,40,30.19,29.85,8,4,18,0.00
2013-2-22,35.9,30.6,23.5,28.2,21.6,15.6,78,69,58,30.31,30.17,3,1,8,0.00
2013-2-23,41.5,37.0,34.6,40.4,34.7,28.1,98,91,77,30.19,29.71,4,1,11,0.25
2013-2-24,45.8,37.4,31.6,40.5,33.4,25.3,100,86,60,29.85,29.63,5,2,16,0.26
2013-2-25,48.5,38.3,28.4,29.7,25.8,22.2,80,62,40,30.14,29.85,3,1,7,0.00
2013-2-26,42.5,36.2,29.5,34.5,30.6,26.9,95,81,58,30.22,29.84,3,1,12,0.14
2013-2-27,47.7,41.9,35.9,47.7,41.1,34.0,100,97,86,29.84,29.40,6,2,16,0.65
2013-2-28,49.5,42.0,37.2,40.4,36.4,31.4,95,81,63,29.54,29.45,2,0,6,0.02
2013-3-1,47.3,39.4,32.9,34.6,30.6,26.9,93,72,50,29.67,29.49,4,1,8,0.03
2013-3-2,45.4,36.2,30.7,28.7,25.3,23.1,91,65,45,29.67,29.59,3,2,10,0.00
2013-3-3,39.5,32.9,28.5,28.4,22.0,18.1,91,65,46,29.63,29.55,5,2,12,0.01
2013-3-4,43.1,33.5,27.0,22.1,19.5,16.4,69,57,41,29.78,29.63,7,4,17,0.01
2013-3-5,49.6,38.6,29.1,28.5,23.6,-99.9,73,57,37,29.94,29.78,5,1,12,0.00
2013-3-6,40.8,37.5,34.0,35.5,31.5,28.0,91,79,66,29.90,29.77,8,4,21,0.04
2013-3-7,36.5,33.5,31.9,33.9,31.4,28.6,97,92,81,29.95,29.81,7,2,21,0.26
2013-3-8,36.3,33.3,30.6,34.0,31.5,27.8,97,93,72,30.07,29.88,1,0,7,0.25
2013-3-9,54.7,39.9,30.3,30.6,26.1,20.3,92,61,27,30.24,30.06,3,0,8,0.49
2013-3-10,46.4,35.8,25.6,36.2,30.0,-99.9,97,82,61,30.31,30.22,2,0,8,0.49
2013-3-11,55.0,45.0,36.6,47.0,40.1,33.7,94,84,62,30.25,30.01,4,1,10,0.00
2013-3-12,53.3,50.6,42.3,52.5,48.4,38.7,98,92,79,30.02,29.60,9,3,24,1.14
2013-3-13,42.6,39.6,36.3,39.6,34.0,28.5,90,81,66,29.77,29.72,2,0,10,1.14
2013-3-14,38.2,33.9,29.3,29.1,14.4,6.1,75,46,30,29.84,29.75,9,4,18,0.00
2013-3-15,44.6,36.3,27.9,29.0,17.4,5.6,63,47,27,29.87,29.63,6,3,14,0.00
2013-3-16,39.1,33.9,30.7,30.3,24.7,18.3,93,70,49,29.81,29.68,4,1,8,0.03
2013-3-17,38.0,33.0,26.9,29.2,19.8,9.7,92,61,39,30.21,29.81,4,1,10,0.01
2013-3-18,34.3,30.9,26.6,31.8,17.3,9.4,96,58,41,30.33,29.96,5,2,13,0.07
2013-3-19,40.1,35.5,31.9,39.3,34.2,30.0,98,95,86,29.96,29.58,6,2,13,0.32
2013-3-20,46.8,36.8,28.8,30.1,20.6,15.5,84,54,31,29.78,29.70,7,2,16,0.32
2013-3-21,35.2,33.6,30.7,26.0,24.2,21.8,78,68,59,29.75,29.70,3,0,5,0.00
2013-3-22,43.5,38.7,33.1,23.3,19.6,16.8,62,46,35,29.77,29.67,6,3,13,0.05
2013-3-23,47.3,38.6,30.6,23.4,19.9,16.8,66,48,31,29.81,29.69,8,4,16,0.05
2013-3-24,47.9,38.2,27.2,25.6,21.6,17.3,73,52,33,29.85,29.62,3,1,10,0.00
2013-3-25,39.6,36.3,33.8,34.0,30.2,25.6,94,79,60,29.64,29.36,7,2,13,0.19
2013-3-26,54.2,41.2,33.4,34.1,29.2,25.2,87,65,34,29.76,29.47,4,1,12,0.01
2013-3-27,56.2,43.0,30.6,30.1,26.0,21.4,83,54,28,29.85,29.75,4,2,11,0.01
2013-3-28,53.2,42.3,33.5,34.5,30.3,27.7,81,63,45,30.00,29.85,3,1,8,0.00
2013-3-29,59.2,47.1,36.8,32.2,28.7,24.6,71,51,29,30.03,29.94,4,1,11,0.00
2013-3-30,59.0,46.5,34.0,33.2,28.2,19.0,82,53,23,30.06,29.97,3,1,10,0.00
2013-3-31,56.2,44.0,30.3,44.0,34.0,28.3,96,71,36,30.04,29.57,5,2,16,0.18
2013-4-1,62.0,47.0,36.0,49.3,38.7,12.4,98,75,36,29.79,29.52,6,2,16,0.04
2013-4-2,44.8,37.6,29.7,17.5,13.6,8.2,56,38,24,29.98,29.79,7,3,14,0.04
2013-4-3,48.2,38.4,30.3,16.9,13.3,9.3,53,36,23,30.18,29.97,7,4,17,0.00
2013-4-4,52.0,39.3,25.8,31.7,20.9,13.5,74,50,27,30.30,30.01,4,1,14,0.00
2013-4-5,63.5,48.3,39.3,35.6,27.2,17.9,83,49,18,30.01,29.60,5,1,16,0.00
2013-4-6,52.2,41.4,34.0,28.8,16.4,4.2,74,40,15,30.24,29.86,4,1,12,0.00
2013-4-7,54.4,44.7,34.9,43.4,35.6,28.4,88,72,50,30.23,29.92,7,2,17,0.00
2013-4-8,73.2,55.3,40.6,46.6,42.7,36.6,97,67,27,29.99,29.89,3,0,8,0.00
2013-4-9,82.0,64.4,47.9,52.5,44.3,34.8,95,56,22,29.93,29.82,6,1,18,0.00
2013-4-10,58.3,56.8,55.1,49.5,45.6,42.4,77,66,56,29.82,29.72,1,0,6,0.00
2013-4-11,59.8,52.5,45.8,48.3,42.5,35.3,80,69,57,29.97,29.87,4,2,12,0.00
2013-4-12,46.0,41.7,39.1,40.6,37.7,32.5,100,87,62,29.97,29.63,6,3,17,0.70
2013-4-13,58.9,46.7,36.6,40.5,37.7,33.4,100,74,40,29.88,29.64,4,1,12,0.76
2013-4-14,58.9,50.4,43.6,42.6,34.2,25.8,90,57,31,30.14,29.87,5,1,12,0.00
2013-4-15,56.7,47.1,37.6,37.8,31.5,26.8,83,57,35,30.30,30.14,3,0,8,0.00
2013-4-16,61.8,52.4,40.5,52.0,45.7,36.6,91,79,63,30.29,30.04,5,2,15,0.00
2013-4-17,69.3,58.5,48.5,52.1,40.2,28.5,89,56,25,30.20,30.02,3,1,10,0.00
2013-4-18,59.9,51.8,42.1,53.7,42.2,33.7,94,72,39,30.27,30.03,6,2,12,0.00
2013-4-19,68.9,59.5,55.1,60.4,57.5,54.2,98,93,74,30.03,29.59,7,3,18,0.00
2013-4-20,59.8,52.9,46.1,58.3,39.4,27.3,98,65,30,30.18,29.59,5,2,14,0.02
2013-4-21,54.5,44.0,35.2,30.5,23.9,17.1,68,47,25,30.54,30.18,3,1,10,0.02
2013-4-22,52.2,43.9,34.1,35.8,32.2,28.1,89,65,41,30.58,30.41,6,2,16,0.00
2013-4-23,47.6,42.7,39.3,40.6,36.8,31.8,92,79,70,30.41,30.00,4,2,14,0.00
2013-4-24,68.1,51.5,40.3,49.4,43.6,38.0,96,77,45,30.00,29.77,5,1,12,0.00
2013-4-25,65.0,55.1,46.4,50.0,34.3,20.8,94,51,20,30.17,29.78,5,2,16,0.00
2013-4-26,66.8,53.6,37.6,44.8,35.2,25.1,95,55,22,30.32,30.17,3,0,10,0.00
2013-4-27,68.3,53.5,39.6,39.5,31.8,16.4,79,48,14,30.33,30.21,2,0,8,0.00
2013-4-28,67.4,54.1,41.8,46.6,37.5,25.3,95,60,25,30.23,30.13,2,0,10,0.00
2013-4-29,59.9,54.4,51.7,46.1,43.3,38.4,81,67,51,30.16,30.11,3,0,8,0.00
2013-4-30,65.5,55.7,42.5,47.1,35.2,21.0,86,52,20,30.25,30.12,3,0,10,0.00
2013-5-1,66.8,52.3,38.9,45.3,39.9,31.6,91,65,43,30.40,30.24,3,1,10,0.00
2013-5-2,71.6,55.2,39.1,50.8,41.8,37.5,97,65,34,30.39,30.25,2,0,10,0.00
2013-5-3,64.5,53.8,44.3,45.3,40.2,32.5,89,62,34,30.38,30.27,4,1,11,0.00
2013-5-4,67.6,51.6,41.2,46.6,41.3,38.1,97,71,37,30.29,30.17,3,1,11,0.00
2013-5-5,61.8,49.7,40.1,43.0,39.8,36.6,90,70,42,30.22,30.14,3,1,11,0.00
2013-5-6,66.8,53.9,41.9,51.2,45.7,39.2,96,76,51,30.18,30.07,2,0,8,0.00
2013-5-7,72.7,59.0,45.1,58.0,52.2,43.5,97,80,53,30.09,30.01,2,0,7,0.00
2013-5-8,65.0,58.4,53.1,63.3,56.4,51.7,100,93,85,30.03,29.91,4,0,10,0.43
2013-5-9,65.2,57.0,52.8,63.1,55.4,52.0,100,95,79,29.94,29.80,1,0,5,0.79
2013-5-10,80.1,64.7,50.8,63.7,54.7,50.8,100,74,39,29.90,29.82,1,0,7,0.79
2013-5-11,68.1,61.0,58.4,61.2,58.8,54.0,100,93,76,29.82,29.62,3,1,13,0.67
2013-5-12,70.4,60.7,54.1,60.7,55.9,43.1,100,87,38,29.62,29.56,4,0,10,0.04
2013-5-13,50.4,45.9,41.6,34.6,31.4,25.5,75,58,38,30.00,29.92,1,0,8,0.00
2013-5-14,61.0,50.3,40.1,40.3,33.5,23.9,79,56,27,30.02,29.93,3,0,8,0.00
2013-5-15,47.1,46.9,46.8,40.3,39.9,39.5,78,77,75,29.99,29.98,1,0,6,0.00
2013-5-18,71.3,61.6,54.5,55.2,51.4,44.9,95,73,42,30.23,30.21,2,0,10,0.09
2013-5-19,57.8,55.8,53.6,57.8,54.8,50.0,100,97,87,30.21,30.10,3,0,6,0.33
2013-5-20,79.8,66.3,57.2,69.3,62.3,57.2,100,88,61,30.10,29.88,2,0,11,0.33
2013-5-21,86.5,72.6,61.8,70.9,65.3,60.9,100,80,55,29.89,29.75,2,0,10,0.01
2013-5-22,77.6,66.3,55.4,68.1,61.6,54.3,100,86,62,29.85,29.76,3,0,10,0.00
2013-5-23,77.6,67.3,63.4,67.2,63.8,61.8,97,89,70,29.82,29.69,5,1,18,0.20
2013-5-24,68.4,58.0,46.0,66.8,56.1,43.6,100,94,77,29.81,29.59,2,0,10,0.13
2013-5-25,48.8,45.8,43.5,47.9,43.5,39.2,100,92,76,29.87,29.76,3,1,13,0.51
2013-5-26,66.3,54.1,44.6,43.4,40.3,36.7,87,62,38,30.10,29.82,4,1,13,0.51
2013-5-27,74.6,58.6,43.5,47.5,40.1,35.6,87,55,25,30.14,30.04,3,0,11,0.00
2013-5-28,73.0,57.8,47.7,57.0,50.9,44.6,100,81,39,30.13,30.05,1,0,10,0.38
2013-5-29,82.0,66.8,56.2,67.7,61.4,56.2,100,85,59,30.05,29.92,2,0,7,0.39
2013-5-30,94.0,78.2,66.3,69.3,64.2,60.3,91,65,33,30.03,29.97,3,0,16,0.00
2013-5-31,94.3,78.0,66.8,71.2,64.4,61.0,90,65,37,30.03,29.90,2,0,12,0.01
2013-6-1,87.4,76.0,66.8,69.4,65.1,62.3,89,71,50,29.93,29.83,4,1,16,0.01
2013-6-2,83.0,72.4,64.7,68.0,64.1,61.5,92,76,57,29.85,29.70,4,1,19,0.00
2013-6-3,76.7,69.1,65.3,67.8,65.5,55.7,98,89,70,29.77,29.71,2,0,10,0.69
2013-6-4,74.6,64.3,54.2,56.5,47.3,42.3,82,56,34,30.01,29.77,2,0,9,0.69
2013-6-5,73.0,62.2,51.1,54.6,47.6,40.9,90,61,35,30.12,30.01,2,0,8,0.00
2013-6-6,72.3,63.5,55.0,60.3,54.3,45.3,98,75,40,30.06,29.94,2,1,10,0.00
2013-6-7,61.8,59.7,57.3,61.2,58.5,55.8,99,96,84,29.94,29.56,6,1,13,9.49
2013-6-8,78.6,65.6,54.7,65.5,60.2,54.7,100,84,60,29.95,29.47,4,0,11,10.40
2013-6-9,80.7,69.0,57.3,64.8,58.7,54.5,98,73,46,30.08,29.95,0,0,2,0.00
2013-6-10,73.2,64.2,61.2,64.9,61.9,58.8,98,92,69,30.08,29.77,4,0,12,2.20
2013-6-11,81.1,70.8,63.1,71.1,65.6,56.8,100,85,57,29.77,29.51,2,1,14,0.20
2013-6-12,76.0,68.4,58.1,57.1,54.8,52.3,89,63,46,29.76,29.59,3,1,10,0.20
2013-6-13,62.0,57.8,55.1,58.1,55.6,53.0,97,93,87,29.75,29.39,6,2,19,1.81
2013-6-14,72.5,59.6,52.3,60.9,53.8,50.1,97,83,53,29.78,29.41,5,1,19,0.04
2013-6-15,80.1,68.2,55.9,58.6,54.4,47.0,95,66,35,29.90,29.78,1,0,6,0.04
2013-6-16,80.7,69.4,56.3,65.6,58.3,51.0,90,70,36,29.90,29.67,3,0,12,0.00
2013-6-17,86.3,74.7,64.2,68.7,64.3,60.5,95,72,42,29.83,29.75,3,0,13,0.00
2013-6-18,84.7,70.1,61.6,69.9,64.4,59.6,96,84,50,29.81,29.73,3,0,7,0.48
2013-6-19,77.2,65.9,56.9,61.2,52.6,35.6,96,66,28,30.07,29.79,3,0,10,0.50
2013-6-20,80.1,66.9,54.7,57.8,53.6,50.2,91,65,38,30.18,30.07,2,0,10,0.00
2013-6-21,84.0,70.2,58.9,60.2,55.4,52.0,86,62,39,30.21,30.16,2,0,14,0.00
2013-6-22,84.3,70.4,58.1,62.6,57.2,51.0,91,65,32,30.17,30.06,2,0,10,0.00
2013-6-23,87.2,75.2,64.3,69.8,64.5,56.5,92,70,49,30.10,29.99,4,1,12,0.00
2013-6-24,93.4,79.2,70.6,73.5,69.0,62.2,96,73,46,29.99,29.85,2,0,7,0.02
2013-6-25,93.2,80.3,68.8,72.9,66.7,63.0,84,65,42,29.91,29.70,2,0,11,0.00
2013-6-26,87.4,79.6,72.7,70.8,67.4,65.0,84,67,53,29.74,29.67,2,0,6,0.00
2013-6-27,82.8,74.6,70.6,72.2,69.3,67.2,94,84,68,29.74,29.51,2,0,11,0.08
2013-6-28,87.6,75.6,71.1,80.8,69.8,68.1,96,83,61,29.51,29.40,3,1,12,2.46
2013-6-29,84.1,74.4,67.9,69.6,67.6,65.2,93,81,54,29.62,29.40,3,0,11,2.46
2013-6-30,84.7,73.5,67.9,73.0,69.6,66.1,97,88,66,29.83,29.62,1,0,7,0.00
2013-7-1,81.6,73.5,71.6,73.7,70.9,69.2,96,92,74,29.98,29.82,3,0,13,0.91
2013-7-2,81.8,74.6,71.3,73.2,70.5,69.3,95,87,71,30.10,29.98,4,1,14,0.20
2013-7-3,85.5,75.6,69.4,73.2,70.3,67.9,96,85,64,30.16,30.09,3,0,11,0.20
2013-7-4,89.3,79.0,72.1,74.7,71.7,69.3,95,80,60,30.16,30.07,3,0,10,0.01
2013-7-5,92.3,80.7,72.0,75.1,71.2,68.9,93,74,52,30.12,30.00,4,0,12,0.00
2013-7-6,94.0,83.3,74.2,74.6,71.1,68.4,88,69,46,30.04,29.92,1,0,6,0.00
2013-7-7,94.0,83.5,75.3,74.6,71.7,69.1,86,69,45,29.96,29.84,3,0,12,0.00
2013-7-8,90.7,80.4,72.3,71.3,67.2,63.2,80,65,45,29.94,29.87,1,0,7,0.00
2013-7-9,88.0,78.0,69.1,73.8,69.0,64.9,88,75,52,29.98,29.90,1,0,6,0.05
2013-7-10,88.4,79.0,72.7,74.9,71.1,68.2,87,77,60,29.94,29.71,2,0,11,0.03
2013-7-11,75.6,74.5,71.1,71.6,70.0,64.6,89,86,78,29.83,29.72,1,0,6,0.04
2013-7-12,74.9,71.0,66.8,67.8,64.4,-99.9,94,82,72,30.03,29.83,3,1,13,0.43
2013-7-13,78.1,72.3,66.9,73.9,69.9,65.1,96,93,85,30.19,30.03,2,0,8,0.06
2013-7-14,91.6,80.5,72.0,75.5,72.2,69.4,95,78,49,30.23,30.14,2,0,7,0.06
2013-7-15,94.5,83.3,75.1,76.2,71.7,69.5,87,70,49,30.15,30.04,1,-17,3,0.00
2013-7-16,93.8,81.9,71.8,71.6,68.0,64.2,87,65,40,30.09,30.03,0,0,3,0.00
2013-7-17,95.4,82.2,71.8,72.0,68.2,63.4,87,65,35,30.09,29.97,1,0,6,0.00
2013-7-18,97.5,85.9,75.8,75.9,71.4,67.0,82,64,38,29.97,29.86,1,-17,6,0.00
2013-7-19,95.4,85.6,78.6,80.1,74.7,72.9,86,71,51,29.87,29.70,4,0,21,0.04
2013-7-20,93.2,84.6,77.9,73.8,70.6,63.2,86,64,48,29.75,29.62,4,0,14,0.04
2013-7-21,83.4,77.9,72.7,69.4,65.5,60.9,88,67,48,29.88,29.74,6,-8,7,0.00
2013-7-22,80.3,75.3,71.5,73.4,71.1,68.2,93,87,77,29.88,29.73,2,0,6,0.03
2013-7-23,88.0,77.4,71.1,76.2,72.1,69.3,96,85,58,29.73,29.46,2,0,7,0.92
2013-7-24,84.9,68.1,68.1,74.1,46.4,-99.9,96,67,57,29.83,29.51,1,-104,6,0.92
2013-7-25,67.9,62.7,60.7,59.5,55.5,49.8,92,78,64,29.97,29.83,4,1,16,0.06
2013-7-26,78.5,67.9,60.9,64.8,61.0,58.6,94,80,54,29.96,29.89,2,0,11,0.01
2013-7-27,83.6,73.2,65.2,67.9,63.8,58.6,94,75,45,29.97,29.89,1,0,7,0.01
2013-7-28,80.5,72.3,63.7,69.7,65.6,61.4,96,81,57,29.91,29.85,1,0,6,0.03
2013-7-29,85.7,68.0,67.8,71.7,45.5,-99.9,96,63,43,29.99,29.85,1,-73,12,0.01
2013-7-30,82.0,71.3,59.5,61.3,57.8,54.5,92,65,40,30.07,29.99,0,0,5,0.01
2013-7-31,84.1,71.7,60.2,63.0,59.5,54.1,94,68,39,30.07,29.96,1,0,6,0.00
2013-8-1,78.1,61.5,66.1,66.9,43.1,-99.9,95,74,62,29.96,29.75,1,-113,8,0.16
2013-8-2,85.1,73.8,66.9,68.7,62.6,-99.9,96,73,38,29.82,29.70,2,-25,17,0.16
2013-8-3,79.6,70.6,65.3,65.8,62.4,57.8,89,76,54,29.82,29.74,1,-8,8,0.02
2013-8-4,81.8,70.5,60.9,63.4,58.5,52.9,93,69,40,29.85,29.75,0,0,1,0.02
2013-8-5,77.6,66.7,57.2,56.8,51.6,44.6,85,61,33,29.96,29.85,1,0,7,0.00
2013-8-6,82.0,67.9,56.5,64.5,56.8,51.4,96,70,40,30.05,29.95,1,0,8,0.00
2013-8-7,78.3,68.0,59.2,65.3,57.0,-99.9,91,73,57,30.07,29.99,5,-12,7,0.00
2013-8-8,80.7,55.6,67.1,71.2,24.5,-99.9,94,65,72,29.99,29.92,5,-198,14,0.03
2013-8-9,83.2,70.8,72.8,76.9,57.9,-99.9,95,81,73,29.94,29.71,3,-65,12,0.10
2013-8-10,83.6,65.4,65.6,70.5,40.6,-99.9,94,61,44,29.95,29.75,1,-118,5,0.10
2013-8-11,81.2,67.3,58.1,61.1,49.2,-99.9,88,60,35,30.03,29.94,0,-45,5,0.00
2013-8-12,79.2,71.7,67.9,68.7,65.9,60.3,94,83,60,29.95,29.84,0,0,3,0.03
2013-8-13,72.3,69.6,66.1,70.8,67.2,64.3,96,92,81,29.85,29.61,0,0,8,0.38
2013-8-14,75.6,67.5,58.3,66.6,55.3,49.3,95,67,44,29.94,29.64,0,0,3,0.38
2013-8-15,61.0,58.1,55.4,53.0,52.4,51.9,88,81,73,29.97,29.94,0,0,0,0.00
2013-8-18,68.8,65.8,62.0,61.3,57.0,55.0,81,73,70,30.06,30.05,0,0,0,0.00
2013-8-19,81.1,70.2,59.9,64.0,59.7,54.6,87,71,52,30.05,29.94,1,0,6,0.00
2013-8-20,87.4,73.8,61.6,67.2,62.4,57.0,96,71,38,30.04,29.95,0,0,3,0.00
2013-8-21,89.0,76.1,65.5,70.0,63.8,53.7,96,70,32,30.08,29.97,1,0,8,0.00
2013-8-22,81.1,73.2,69.3,72.8,69.2,66.0,93,88,74,29.97,29.78,1,0,6,0.07
2013-8-23,81.6,72.5,65.3,68.0,61.6,55.2,94,71,45,30.01,29.77,2,0,5,0.08
2013-8-24,77.4,67.8,58.9,60.0,53.9,45.9,89,63,34,30.26,30.01,3,1,8,0.00
2013-8-25,84.3,69.4,55.3,65.7,54.3,45.5,96,64,27,30.30,30.14,2,0,8,0.00
2013-8-26,84.1,73.4,66.8,68.2,60.3,54.1,92,64,46,30.14,29.83,2,0,11,0.10
2013-8-27,84.0,74.2,69.3,70.4,68.1,66.4,96,83,58,29.83,29.72,1,0,6,0.01
2013-8-28,87.0,75.0,66.1,71.7,67.4,64.3,95,79,50,29.82,29.76,0,0,2,0.01
2013-8-29,76.3,70.7,66.6,68.3,64.5,61.0,94,81,61,29.95,29.79,3,1,11,0.01
2013-8-30,84.1,72.6,65.0,69.0,65.1,60.7,89,78,54,29.94,29.77,1,0,8,0.01
2013-8-31,85.9,76.1,69.8,71.9,69.2,66.8,91,80,60,29.79,29.71,2,0,8,0.00
2013-9-1,85.9,76.3,71.5,72.3,70.7,69.5,94,84,61,29.77,29.72,1,0,7,0.00
2013-9-2,79.9,75.2,70.8,73.1,71.8,68.8,95,90,79,29.73,29.62,1,0,7,0.00
2013-9-3,81.4,72.9,66.6,71.4,65.5,56.3,96,79,48,29.79,29.62,1,0,6,0.01
2013-9-4,83.0,71.3,60.2,62.0,56.2,49.1,91,62,32,29.90,29.78,1,0,3,0.01
2013-9-5,79.8,68.5,61.0,62.7,53.1,40.8,87,60,32,30.05,29.83,2,0,8,0.00
2013-9-6,70.8,61.2,51.6,47.5,44.2,38.4,84,55,33,30.16,30.04,3,0,8,0.00
2013-9-7,81.4,64.5,49.4,58.5,49.5,39.8,90,63,23,30.04,29.81,2,0,10,0.00
2013-9-8,82.4,70.8,61.5,63.5,55.8,45.7,81,60,40,29.99,29.72,2,0,11,0.00
2013-9-9,73.0,62.6,49.6,57.0,47.8,42.4,85,60,36,30.15,29.99,2,0,10,0.00
2013-9-10,80.1,71.8,61.8,69.6,65.6,56.9,92,81,69,30.08,29.96,2,0,10,0.01
2013-9-11,95.1,80.4,71.8,75.5,70.4,68.0,92,74,49,30.02,29.91,3,0,14,0.01
2013-9-12,75.6,71.9,68.4,69.4,68.1,66.9,95,88,81,29.91,29.60,1,0,12,0.60
2013-9-13,77.4,68.7,58.7,69.5,62.3,51.4,96,81,52,29.74,29.54,0,0,6,0.64
2013-9-14,70.6,60.3,53.3,51.9,48.9,46.4,80,67,46,30.02,29.73,1,0,4,0.00
2013-9-15,72.8,59.3,46.4,55.2,47.9,39.7,96,70,32,30.12,30.00,1,0,8,0.00
2013-9-16,71.8,62.4,57.2,59.0,53.4,44.1,91,74,51,30.13,29.94,2,0,8,0.01
2013-9-17,61.5,53.5,44.9,44.6,39.1,34.7,88,60,40,30.33,30.13,5,1,14,0.01
2013-9-18,73.7,56.8,42.3,52.4,45.2,40.1,96,69,33,30.26,30.10,1,0,7,0.00
2013-9-19,79.2,62.4,48.2,55.8,50.0,42.1,96,69,29,30.10,29.98,2,0,7,0.00
2013-9-20,80.3,64.8,52.9,60.5,55.0,51.2,96,74,38,30.00,29.92,1,0,8,0.00
2013-9-21,76.5,65.3,51.4,66.0,60.4,49.7,96,85,65,29.93,29.60,3,1,14,0.00
2013-9-22,72.3,64.4,53.8,66.2,54.4,40.7,96,72,46,29.81,29.56,2,0,10,1.04
2013-9-23,66.9,56.6,49.1,44.8,41.8,37.9,72,59,41,29.95,29.81,2,0,7,0.00
2013-9-24,72.0,57.1,44.6,49.2,44.6,39.3,88,65,37,29.96,29.77,1,0,7,0.00
2013-9-25,72.5,58.5,46.5,51.4,47.5,44.0,95,70,38,29.86,29.78,0,0,1,0.00
2013-9-26,68.4,59.3,50.5,57.2,52.5,48.0,96,79,54,30.01,29.84,3,0,7,0.00
2013-9-27,63.4,57.6,49.5,55.8,50.8,47.4,96,79,63,30.18,30.01,3,0,10,0.00
2013-9-28,70.9,60.9,52.2,55.1,51.9,49.3,95,74,48,30.23,30.15,2,0,10,0.00
2013-9-29,68.1,57.5,48.8,55.8,48.6,37.4,96,75,38,30.15,30.00,2,0,7,0.00
2013-9-30,72.8,59.0,47.0,58.2,51.1,45.4,97,78,41,30.00,29.89,1,0,6,0.00
2013-10-1,81.6,65.2,52.6,59.3,54.3,50.9,96,72,36,29.90,29.81,0,0,0,0.01
2013-10-2,83.8,68.3,55.9,62.0,58.1,54.0,95,73,42,29.91,29.82,1,0,2,0.00
2013-10-3,77.4,65.6,53.5,61.7,53.4,41.4,96,68,32,30.03,29.91,1,0,3,0.00
2013-10-4,86.7,69.6,59.0,66.7,61.7,55.4,95,78,48,29.99,29.88,1,0,7,0.00
2013-10-5,75.4,66.3,62.7,64.0,61.5,59.7,94,85,64,30.01,29.93,1,0,7,0.00
2013-10-6,66.3,64.3,63.4,65.4,63.0,61.6,97,96,92,30.03,29.97,1,0,8,0.02
2013-10-7,76.1,68.2,58.7,68.2,64.8,53.1,97,89,75,29.97,29.72,5,1,20,0.17
2013-10-8,65.8,58.9,53.2,52.8,44.7,38.6,82,61,38,30.24,29.88,2,0,8,0.17
2013-10-9,60.9,57.1,54.1,48.7,45.9,35.3,77,66,45,30.31,30.21,5,2,14,0.00
2013-10-10,61.8,57.3,54.2,55.7,51.9,48.0,92,82,77,30.21,30.00,4,2,13,0.03
2013-10-11,58.9,58.6,58.3,54.5,53.9,53.5,86,85,83,30.00,29.96,3,2,10,0.03
2013-10-12,60.2,59.1,58.1,53.0,52.3,51.8,80,78,77,30.21,30.18,4,2,12,0.00
2013-10-13,61.0,56.4,49.5,52.2,49.5,45.3,87,78,65,30.30,30.19,4,2,14,0.00
2013-10-14,63.9,52.7,42.2,50.4,46.2,40.6,96,80,57,30.29,30.17,2,0,9,0.00
2013-10-15,68.6,54.8,45.1,57.3,48.4,43.6,97,81,53,30.18,30.03,2,0,8,0.00
2013-10-16,67.1,58.5,48.5,57.9,54.0,46.3,95,85,68,30.03,29.83,1,0,6,0.00
2013-10-17,74.4,64.1,59.5,61.9,59.4,57.3,94,85,63,29.84,29.62,1,0,7,0.01
2013-10-18,69.6,62.9,55.1,61.6,50.2,42.4,94,66,39,29.83,29.58,2,0,14,0.03
2013-11-3,47.9,40.6,37.1,31.3,26.7,17.7,63,58,45,30.34,30.09,3,1,5,0.00
2013-11-4,44.4,37.1,30.9,26.0,20.7,16.2,78,52,36,30.58,30.34,5,2,11,0.00
2013-11-5,56.5,44.7,32.0,39.2,33.9,25.3,86,67,45,30.58,30.41,2,0,6,0.00
2013-11-6,64.0,51.2,37.8,55.5,44.4,35.6,96,80,45,30.42,29.98,3,0,7,0.00
2013-11-7,63.2,55.4,41.9,60.3,51.6,29.4,96,87,60,29.98,29.66,4,1,10,0.16
2013-11-8,52.7,44.2,39.4,32.8,28.8,24.6,74,56,38,30.10,29.82,5,2,12,0.00
2013-11-9,49.7,42.8,34.8,34.6,28.1,24.1,75,57,39,30.19,29.93,2,1,6,0.00
2013-11-10,62.4,50.2,42.4,39.4,34.1,26.7,73,55,27,29.93,29.69,6,2,10,0.00
2013-11-11,54.7,48.6,41.4,33.1,29.0,25.8,57,47,34,30.09,29.87,5,2,12,0.00
2013-11-12,50.4,37.4,30.1,39.4,28.2,18.4,93,70,50,30.17,29.83,2,1,8,0.09
2013-11-13,40.6,32.4,26.9,21.1,17.0,11.8,68,54,34,30.26,30.17,4,1,8,0.00
2013-11-14,53.4,41.7,30.1,22.8,18.5,13.5,64,42,23,30.18,30.05,4,1,13,0.00
2013-11-15,59.8,47.0,37.7,40.0,30.1,22.6,82,54,27,30.16,30.07,2,0,6,0.00
2013-11-16,63.4,48.6,40.1,48.4,41.0,30.2,94,76,45,30.24,30.13,2,0,6,0.01
2013-11-17,61.5,54.7,40.3,60.3,53.5,38.7,97,95,93,30.19,29.72,2,0,5,0.01
2013-11-18,66.9,59.0,49.6,60.4,43.7,27.3,97,62,30,29.71,29.51,5,2,12,0.00
2013-11-19,51.9,43.9,33.7,30.3,26.1,21.5,64,50,38,30.24,29.67,8,3,14,0.00
2013-11-20,43.1,34.1,26.2,22.1,18.0,10.9,77,54,27,30.52,30.24,3,1,7,0.00
2013-11-21,52.1,38.6,25.0,41.4,30.0,20.3,91,73,48,30.54,30.31,2,0,5,0.00
2013-11-22,54.0,51.2,46.6,52.3,47.5,41.4,96,87,80,30.30,29.79,2,0,5,0.09
2013-11-23,52.4,42.9,29.9,49.8,26.8,8.5,92,54,35,29.91,29.78,7,3,14,0.00
2013-11-24,31.8,26.2,22.7,13.7,4.5,-5.3,53,40,22,30.25,29.87,9,6,19,0.00
2013-11-25,37.6,29.2,21.4,16.1,11.9,6.1,65,49,30,30.38,30.24,6,2,11,0.00
2013-11-26,52.2,39.3,32.6,51.4,34.1,14.6,97,83,47,30.25,29.74,4,0,11,0.20
2013-11-27,62.4,49.6,34.5,61.2,48.0,23.3,97,94,64,29.72,29.22,11,4,20,2.04
2013-11-28,36.6,31.2,25.6,23.6,15.3,10.4,66,52,37,30.38,29.60,9,4,13,0.00
2013-11-29,42.1,32.4,28.0,22.4,19.1,15.4,74,58,40,30.64,30.38,3,0,7,0.00
2013-11-30,37.8,31.5,25.0,27.9,18.6,11.3,74,60,34,30.67,30.30,2,0,5,0.00
2013-12-1,50.2,42.1,35.7,41.0,36.5,28.0,93,81,69,30.28,29.92,1,0,6,0.00
2013-12-2,47.5,38.8,33.7,40.6,33.0,-99.9,95,85,75,29.91,29.80,1,-24,6,0.00
2013-12-3,54.6,41.0,33.7,41.7,35.1,32.5,97,82,48,29.91,29.78,1,0,5,0.00
2013-12-4,54.7,42.1,32.3,42.8,36.2,30.8,96,81,53,30.05,29.91,1,0,4,0.00
2013-12-5,58.0,53.7,45.0,56.9,52.3,42.8,97,95,89,30.05,29.85,2,0,7,0.09
2013-12-6,57.5,46.9,36.6,56.9,45.7,35.0,98,96,90,30.05,29.79,3,0,10,0.36
2013-12-7,41.7,36.2,30.1,36.0,29.9,19.6,96,79,61,30.41,29.99,4,0,6,0.21
2013-12-8,32.7,30.5,27.4,29.9,21.7,17.7,92,70,55,30.51,30.30,2,0,7,0.00
2013-12-9,41.0,37.1,32.1,40.2,36.1,30.0,97,96,92,30.30,29.85,4,1,10,0.12
2013-12-10,35.1,32.4,26.9,34.0,30.6,18.9,97,93,71,30.02,29.76,3,1,6,0.07
2013-12-11,35.7,29.2,24.7,20.0,17.3,14.9,71,61,50,30.22,30.02,5,2,8,0.08
2013-12-12,28.0,22.6,18.0,16.5,10.2,3.7,67,59,45,30.16,30.07,4,1,11,0.01
2013-12-13,35.8,28.1,21.4,18.8,12.1,5.2,67,51,41,30.24,30.03,5,2,12,0.00
2013-12-14,38.8,26.6,23.2,38.0,22.1,16.1,97,83,66,30.42,29.75,5,2,10,0.03
2013-12-15,41.6,35.8,31.4,40.8,31.6,21.1,97,85,65,29.75,29.38,7,2,10,1.36
2013-12-16,34.2,27.2,17.8,22.5,12.9,8.7,74,55,37,30.14,29.73,6,2,13,0.01
2013-12-17,34.0,25.1,17.2,32.7,21.0,10.4,95,84,60,30.15,29.83,2,0,6,0.02
2013-12-18,37.3,28.9,23.2,25.9,21.8,19.1,89,75,58,30.07,29.81,5,1,10,0.11
2013-12-19,46.2,36.2,23.8,29.8,24.8,18.5,82,65,41,30.09,29.93,4,1,11,0.02
2013-12-20,53.3,44.3,32.7,43.7,34.6,28.4,90,70,46,30.03,29.88,3,1,8,0.00
2013-12-21,60.6,52.4,46.6,52.1,47.6,43.8,94,84,63,29.92,29.82,3,1,14,0.00
2013-12-22,64.3,59.6,54.4,58.3,55.6,51.4,96,87,75,29.88,29.74,7,3,18,0.01
2013-12-23,59.1,53.5,40.1,58.2,52.1,38.2,97,95,88,30.03,29.78,4,0,7,0.46
2013-12-24,41.6,35.2,26.5,38.1,25.7,13.6,93,69,46,30.21,29.99,5,1,9,0.00
2013-12-25,29.2,24.3,18.5,13.4,9.3,7.4,64,53,41,30.43,30.22,5,1,13,0.01
2013-12-26,38.4,29.8,24.0,27.4,22.5,12.9,86,74,57,30.36,30.05,3,0,7,0.00
2013-12-27,43.9,32.5,24.7,23.8,21.2,15.6,86,65,32,30.26,30.17,4,1,7,0.00
2013-12-28,54.6,42.5,28.4,29.3,26.5,22.6,79,56,32,30.19,29.97,6,1,13,0.00
2013-12-29,48.2,43.2,40.1,47.4,36.4,27.7,97,78,53,29.98,29.27,5,1,7,1.13
2013-12-30,42.4,35.1,21.8,40.1,28.1,12.1,96,77,53,30.09,29.58,5,1,11,0.00
2013-12-31,32.3,25.7,18.9,21.9,13.4,8.4,72,60,47,30.17,29.97,5,1,10,0.00
2014-1-1,33.9,27.9,20.7,20.7,14.0,7.9,66,56,45,30.32,30.17,4,1,7,0.00
2014-1-2,31.2,25.8,16.4,25.3,22.1,13.3,91,86,65,30.18,29.58,7,4,18,0.00